Precipitable_Water
0.95 1.21 1.28 1.28 1.27 1.26 1.25 1.29 1.20 1.16 1.10 1.02 0.97 0.88 0.81 0.74 0.69 0.66 0.66 0.66 0.66 0.67 0.72 0.74 0.77 0.81 0.81 0.84 0.84 0.80 0.75 0.71 0.56 0.55 0.58 0.59 0.58 0.58 0.61 0.64 0.64 0.62 0.61
0.88 0.95 1.09 1.28 1.30 1.25 1.23 1.27 1.31 1.37 1.28 1.22 1.14 1.09 1.03 0.94 0.86 0.77 0.72 0.70 0.68 0.68 0.71 0.76 0.79 0.88 0.90 0.91 0.90 0.84 0.80 0.79 0.74 0.63 0.61 0.58 0.57 0.59 0.59 0.60 0.61 0.61 0.58
0.89 0.87 0.99 1.06 1.20 1.26 1.27 1.28 1.30 1.32 1.31 1.27 1.22 1.18 1.15 1.13 1.11 1.05 0.93 0.84 0.79 0.75 0.74 0.75 0.78 0.88 0.90 0.95 0.97 0.92 0.90 0.87 0.83 0.78 0.71 0.69 0.61 0.60 0.59 0.60 0.60 0.58 0.58
0.91 0.88 0.86 0.86 1.01 1.20 1.27 1.29 1.27 1.26 1.30 1.30 1.30 1.28 1.25 1.25 1.23 1.22 1.18 1.11 1.01 0.91 0.87 0.85 0.85 0.90 0.91 0.95 0.97 0.96 0.95 0.90 0.86 0.81 0.79 0.74 0.69 0.66 0.63 0.58 0.54 0.56 0.54
0.86 0.87 0.88 0.89 0.94 0.98 1.09 1.21 1.26 1.21 1.21 1.20 1.23 1.23 1.25 1.22 1.21 1.18 1.18 1.16 1.13 1.13 1.06 0.95 0.91 0.91 0.97 1.03 1.00 0.99 1.00 0.93 0.88 0.86 0.85 0.80 0.73 0.67 0.61 0.62 0.59 0.58 0.58
0.78 0.77 0.84 0.89 0.92 0.91 0.93 0.99 1.01 1.09 1.22 1.22 1.23 1.17 1.18 1.19 1.22 1.23 1.20 1.22 1.20 1.17 1.15 1.16 1.22 1.12 1.03 1.04 1.06 1.08 1.10 1.04 0.96 0.89 0.87 0.83 0.80 0.77 0.73 0.69 0.65 0.61 0.56
0.67 0.72 0.78 0.86 0.86 0.85 0.92 0.94 0.95 0.98 1.08 1.12 1.16 1.19 1.18 1.21 1.24 1.25 1.22 1.20 1.17 1.18 1.17 1.15 1.19 1.21 1.23 1.20 1.16 1.20 1.21 1.20 1.16 1.04 0.92 0.91 0.86 0.83 0.77 0.72 0.70 0.69 0.66
0.63 0.66 0.74 0.79 0.86 0.91 0.90 0.90 0.93 0.95 0.96 0.99 1.05 1.12 1.12 1.14 1.19 1.20 1.11 1.11 1.15 1.16 1.14 1.15 1.14 1.12 1.13 1.13 1.14 1.15 1.18 1.20 1.19 1.15 1.07 1.03 1.01 0.98 0.91 0.83 0.80 0.80 0.75
0.59 0.67 0.71 0.78 0.79 0.84 0.85 0.89 0.91 0.90 0.91 0.93 0.95 1.01 1.04 1.08 1.13 1.10 1.10 1.05 1.06 1.11 1.15 1.13 1.13 1.11 1.11 1.12 1.05 1.05 1.10 1.13 1.20 1.19 1.16 1.13 1.08 1.04 0.98 0.89 0.82 0.77 0.69
0.58 0.63 0.71 0.75 0.76 0.76 0.81 0.84 0.85 0.89 0.91 0.92 0.91 0.95 0.96 0.97 1.00 1.07 1.07 1.08 1.02 1.02 1.09 1.12 1.12 1.10 1.11 1.09 1.03 1.02 1.00 1.04 1.09 1.09 1.08 1.08 1.07 1.03 1.00 0.94 0.87 0.78 0.71
0.57 0.60 0.64 0.68 0.69 0.71 0.73 0.78 0.81 0.82 0.85 0.83 0.84 0.91 0.95 0.95 0.95 0.98 0.98 1.01 1.03 1.01 1.00 1.06 1.09 1.11 1.09 1.07 1.08 1.02 1.00 1.06 1.06 1.03 1.01 1.01 1.00 0.97 0.95 0.92 0.89 0.82 0.73
0.56 0.55 0.57 0.62 0.64 0.64 0.64 0.64 0.67 0.70 0.72 0.76 0.77 0.79 0.82 0.89 0.93 0.94 0.96 1.00 0.97 0.94 0.97 1.00 1.05 1.08 1.07 1.05 1.01 1.00 1.02 1.04 0.99 0.96 0.93 0.92 0.91 0.90 0.89 0.87 0.85 0.83 0.80
0.54 0.55 0.54 0.55 0.59 0.61 0.58 0.58 0.59 0.61 0.62 0.65 0.67 0.70 0.75 0.80 0.83 0.86 0.92 0.94 0.96 0.93 0.94 0.95 0.99 1.00 1.03 1.02 1.00 0.98 0.97 0.94 0.89 0.86 0.85 0.86 0.88 0.89 0.87 0.83 0.83 0.81 0.80
0.52 0.52 0.54 0.54 0.55 0.58 0.60 0.59 0.57 0.56 0.55 0.55 0.57 0.59 0.65 0.72 0.76 0.79 0.81 0.84 0.86 0.85 0.88 0.88 0.91 0.92 0.95 0.96 0.94 0.92 0.88 0.87 0.84 0.81 0.80 0.82 0.83 0.81 0.79 0.79 0.76 0.75 0.72
0.51 0.51 0.51 0.53 0.53 0.54 0.55 0.56 0.56 0.59 0.58 0.56 0.57 0.60 0.61 0.64 0.70 0.80 0.81 0.80 0.79 0.80 0.80 0.81 0.78 0.80 0.81 0.85 0.87 0.86 0.82 0.82 0.81 0.81 0.79 0.76 0.75 0.76 0.75 0.76 0.73 0.70 0.65
0.48 0.48 0.48 0.48 0.49 0.48 0.47 0.47 0.52 0.53 0.54 0.57 0.58 0.58 0.60 0.63 0.66 0.69 0.71 0.74 0.77 0.78 0.75 0.72 0.72 0.75 0.75 0.75 0.77 0.78 0.78 0.78 0.77 0.76 0.73 0.71 0.67 0.67 0.67 0.68 0.67 0.65 0.62
0.53 0.54 0.54 0.54 0.53 0.53 0.52 0.50 0.47 0.51 0.53 0.53 0.53 0.55 0.57 0.60 0.63 0.66 0.67 0.70 0.70 0.71 0.65 0.63 0.64 0.65 0.65 0.66 0.68 0.68 0.68 0.69 0.70 0.68 0.67 0.66 0.65 0.63 0.62 0.61 0.60 0.59 0.57
0.53 0.53 0.52 0.52 0.51 0.50 0.51 0.50 0.50 0.49 0.48 0.51 0.57 0.58 0.59 0.60 0.62 0.64 0.65 0.66 0.62 0.65 0.65 0.63 0.63 0.64 0.64 0.64 0.65 0.65 0.66 0.67 0.67 0.66 0.64 0.64 0.63 0.61 0.59 0.58 0.57 0.56 0.55
0.48 0.48 0.48 0.48 0.48 0.47 0.47 0.46 0.46 0.46 0.45 0.46 0.48 0.51 0.54 0.56 0.58 0.60 0.61 0.58 0.56 0.57 0.58 0.60 0.62 0.63 0.64 0.65 0.65 0.65 0.65 0.64 0.64 0.64 0.63 0.62 0.62 0.60 0.58 0.58 0.58 0.56 0.55
0.39 0.39 0.38 0.38 0.38 0.37 0.37 0.36 0.36 0.36 0.36 0.36 0.37 0.38 0.41 0.43 0.44 0.47 0.50 0.52 0.52 0.53 0.54 0.54 0.56 0.58 0.59 0.61 0.61 0.62 0.62 0.62 0.61 0.61 0.61 0.60 0.60 0.59 0.56 0.56 0.55 0.53 0.53
0.27 0.28 0.28 0.27 0.26 0.25 0.25 0.24 0.24 0.23 0.23 0.24 0.25 0.28 0.28 0.26 0.26 0.27 0.29 0.32 0.34 0.36 0.38 0.40 0.43 0.45 0.47 0.49 0.50 0.52 0.53 0.54 0.56 0.56 0.57 0.57 0.56 0.54 0.55 0.54 0.53 0.52 0.51
0.23 0.22 0.22 0.21 0.21 0.20 0.20 0.20 0.20 0.19 0.19 0.19 0.20 0.22 0.23 0.22 0.22 0.22 0.23 0.23 0.24 0.26 0.27 0.28 0.29 0.31 0.32 0.33 0.35 0.35 0.36 0.37 0.39 0.41 0.41 0.43 0.44 0.44 0.44 0.44 0.44 0.43 0.43
0.20 0.20 0.20 0.20 0.19 0.19 0.18 0.19 0.19 0.18 0.18 0.18 0.18 0.18 0.19 0.19 0.20 0.20 0.20 0.21 0.22 0.23 0.25 0.25 0.25 0.25 0.27 0.28 0.30 0.30 0.30 0.31 0.33 0.35 0.34 0.34 0.35 0.35 0.35 0.34 0.34 0.34 0.34
0.19 0.18 0.18 0.18 0.18 0.17 0.17 0.16 0.17 0.17 0.17 0.17 0.17 0.17 0.17 0.18 0.18 0.18 0.19 0.19 0.20 0.20 0.21 0.22 0.23 0.23 0.24 0.24 0.26 0.27 0.28 0.29 0.30 0.30 0.30 0.29 0.29 0.30 0.31 0.31 0.31 0.32 0.32
0.19 0.18 0.18 0.18 0.17 0.17 0.16 0.16 0.16 0.16 0.16 0.16 0.16 0.17 0.17 0.18 0.18 0.19 0.19 0.19 0.20 0.20 0.20 0.19 0.19 0.19 0.19 0.20 0.22 0.22 0.24 0.26 0.27 0.28 0.29 0.28 0.28 0.29 0.29 0.29 0.29 0.30 0.30
0.18 0.18 0.17 0.17 0.16 0.15 0.15 0.15 0.14 0.14 0.14 0.14 0.15 0.14 0.15 0.15 0.16 0.16 0.17 0.17 0.18 0.18 0.18 0.18 0.18 0.17 0.17 0.18 0.18 0.19 0.21 0.22 0.24 0.25 0.26 0.26 0.25 0.25 0.26 0.26 0.26 0.27 0.27
Wind_Speed
23 26 29 28 32 31 34 36 38 39 40 40 40 40 39 39 39 40 39 39 39 38 38 38 37 36 35 34 33 32 31 30 28 27 28 28 28 29 28 28 28 28 27
20 24 28 31 31 32 33 35 36 36 40 39 39 40 41 41 41 41 41 40 41 41 40 40 39 39 39 37 36 35 34 33 31 30 30 30 30 31 31 30 30 30 30
18 20 24 29 31 32 35 34 35 37 35 39 38 38 39 41 41 42 43 43 43 43 43 42 42 41 40 39 39 38 37 36 35 33 32 32 32 33 32 32 32 32 32
18 19 21 25 30 30 30 32 35 36 36 36 35 38 38 38 41 42 42 44 46 45 45 45 44 44 43 42 42 41 40 39 37 36 34 34 34 34 34 33 33 34 33
19 19 19 22 25 27 30 32 33 35 37 37 38 37 38 37 38 40 40 41 41 44 48 48 46 46 45 44 43 42 42 42 41 40 38 36 35 35 36 35 35 35 35
20 20 19 20 23 25 26 28 30 35 36 38 39 37 37 39 39 41 40 40 40 41 43 44 45 47 47 47 46 45 46 43 43 42 40 39 38 38 39 38 37 36 37
18 20 20 20 21 23 24 26 27 29 33 34 35 37 38 38 38 39 38 38 41 42 42 42 44 45 45 47 47 46 47 46 45 44 43 41 39 39 39 39 39 38 36
17 17 19 20 21 22 23 24 26 27 28 31 32 34 36 38 38 37 38 37 38 40 40 40 41 41 43 45 46 46 47 50 49 47 46 44 43 41 40 39 39 37 36
18 18 18 19 19 21 21 23 23 25 27 28 28 31 33 34 37 39 39 39 38 38 38 38 39 40 38 39 41 42 44 45 46 47 47 46 44 43 42 39 38 37 38
19 19 19 19 20 20 19 20 21 22 23 25 26 28 29 32 35 37 38 41 39 37 38 38 39 37 37 36 36 36 37 38 40 41 43 43 43 42 43 43 41 40 39
21 20 20 20 20 20 20 20 20 20 20 21 23 24 25 27 28 30 34 36 37 38 36 37 37 37 36 37 38 37 36 36 37 37 39 40 40 39 40 42 42 41 40
20 19 19 19 19 19 18 18 18 19 19 20 21 22 22 24 25 26 28 30 32 33 35 34 36 37 36 35 34 35 35 35 34 35 35 37 37 37 37 37 38 38 39
21 20 19 18 18 19 19 19 19 19 20 20 21 21 22 23 23 25 26 28 29 29 30 32 34 34 34 35 34 32 31 31 32 33 33 35 35 35 35 36 36 36 37
18 19 19 18 18 18 18 19 19 19 20 20 20 20 21 21 22 24 24 25 25 26 27 27 28 28 30 31 31 31 31 31 30 30 31 33 34 34 35 35 34 35 35
17 17 17 17 17 17 16 17 17 17 18 19 19 20 21 21 21 22 23 23 23 24 24 24 25 26 26 25 28 29 30 31 32 32 32 33 34 34 35 34 35 35 36
15 15 15 15 15 15 15 15 14 15 15 16 16 18 19 19 20 20 20 22 22 22 22 22 22 22 24 27 28 28 29 31 32 33 33 33 34 34 34 35 36 36 34
14 13 14 14 15 15 15 16 16 15 14 14 15 15 15 16 17 18 19 20 20 20 21 21 22 23 24 26 28 28 30 31 31 30 30 30 32 34 35 34 34 34 34
13 13 14 14 14 15 15 16 16 16 16 16 16 16 16 16 16 17 17 18 18 19 20 21 22 23 23 24 25 26 27 27 28 29 30 30 30 30 30 31 32 32 32
12 12 12 13 13 13 13 14 14 14 14 15 15 16 16 16 16 16 16 17 18 18 19 20 21 22 23 24 25 26 27 28 28 29 29 30 30 30 30 31 32 32 33
10 10 10 10 10 10 11 11 12 12 13 13 13 14 14 14 15 16 16 17 17 18 19 20 21 21 22 23 24 25 25 26 27 28 29 29 30 30 30 31 32 32 33
9 9 9 9 9 10 10 11 11 12 12 13 13 14 14 14 15 16 16 17 17 18 19 20 20 21 22 23 24 24 25 25 26 27 28 29 30 30 31 32 32 33 33
9 10 10 10 10 10 11 11 12 12 13 13 14 14 14 15 16 17 17 18 19 20 21 21 22 22 23 23 24 25 26 27 27 28 29 29 30 31 31 32 32 33 33
9 10 10 11 11 11 11 12 13 13 14 14 15 16 16 17 18 19 20 20 21 22 23 23 24 25 25 26 26 27 27 28 29 29 30 31 31 31 32 32 33 33 34
11 11 11 12 13 13 14 15 15 16 17 17 18 19 20 21 21 22 23 23 24 25 26 26 27 27 28 29 29 29 30 30 30 31 31 31 32 32 33 34 34 35 36
14 14 15 15 16 17 17 18 18 19 20 21 22 22 23 24 25 25 26 27 27 27 28 28 29 29 30 30 31 31 32 32 32 32 33 33 34 35 35 36 36 37 37
18 18 19 19 20 21 21 21 22 23 23 24 25 26 26 27 27 28 28 28 29 30 30 31 32 32 32 33 33 34 34 35 35 36 36 36 37 37 37 37 38 38 39
Wind_Direction
216 217 216 215 212 210 212 213 214 216 218 219 221 222 223 224 226 228 230 231 233 236 237 240 241 243 245 247 249 251 253 255 257 259 256 256 255 256 257 258 260 262 263
218 219 219 217 217 216 216 215 217 219 220 222 223 224 227 228 229 231 233 235 236 238 239 241 243 245 247 248 249 251 252 254 256 258 257 256 257 256 257 258 260 261 262
220 219 219 219 217 219 220 221 221 220 221 222 224 225 227 229 232 234 235 237 239 240 241 243 244 246 247 249 250 252 252 254 256 258 258 258 257 256 257 259 260 262 263
221 220 221 221 219 219 220 221 222 222 222 222 225 226 229 232 234 235 236 239 242 242 243 244 245 246 248 250 251 252 254 254 255 257 259 259 257 257 256 258 259 261 262
223 223 224 225 224 222 222 224 226 226 227 231 230 232 234 233 232 234 238 240 244 244 245 245 246 247 248 250 251 253 253 254 256 256 259 258 257 257 255 257 259 260 262
224 226 226 225 222 225 227 228 230 230 232 234 233 236 234 234 237 238 241 243 247 244 244 246 248 249 249 251 252 253 254 255 255 256 255 256 257 257 256 256 258 261 264
226 226 227 226 225 226 226 227 230 230 230 232 233 236 237 237 240 239 242 244 245 247 249 249 247 250 250 252 251 254 253 254 254 255 254 254 255 257 255 256 256 258 260
230 231 228 227 227 228 229 230 231 231 232 234 236 237 239 240 240 240 243 245 246 247 250 249 249 252 252 252 253 253 255 253 253 254 254 255 257 255 254 256 255 258 259
233 233 232 228 227 228 230 232 234 234 235 237 238 239 240 242 240 244 244 246 249 249 249 249 252 252 253 252 252 254 254 252 251 253 253 254 253 251 253 253 255 256 259
234 233 232 230 228 230 232 233 235 235 237 239 241 243 244 245 246 245 247 248 248 252 252 250 251 252 252 250 252 255 253 253 251 252 251 251 250 250 250 254 254 256 260
235 234 232 231 231 233 233 235 236 237 238 240 243 245 246 248 249 248 248 247 249 251 254 249 250 249 250 253 253 256 255 254 252 252 251 250 250 249 252 254 255 257 258
231 231 229 229 230 231 232 234 236 239 240 243 245 246 248 250 251 251 249 250 251 251 252 253 252 249 251 251 255 257 256 252 252 251 252 250 250 251 254 254 255 258 261
231 230 230 230 232 234 235 238 240 243 244 246 247 250 251 254 255 253 253 252 252 253 254 254 251 251 249 251 254 255 253 253 253 253 252 252 251 253 254 255 258 259 263
228 227 229 232 235 238 240 242 245 247 248 250 251 252 254 256 258 257 255 252 253 255 254 254 253 253 251 254 254 251 252 252 254 256 256 257 255 256 257 258 259 260 266
221 223 225 229 233 236 240 244 245 249 250 250 251 253 255 257 260 257 254 253 254 255 255 254 253 252 252 252 249 250 254 253 256 258 260 260 260 259 260 260 262 264 266
213 217 221 225 230 234 237 240 246 248 250 250 252 253 255 259 258 257 255 253 252 254 254 254 253 252 254 252 252 255 254 256 259 262 262 261 260 260 260 262 266 265 264
214 219 226 231 236 240 242 244 246 249 250 250 252 254 257 258 256 255 256 255 256 254 253 254 254 255 257 257 257 259 259 260 260 260 259 261 261 263 262 263 262 262 263
221 230 233 236 240 243 245 246 247 248 250 253 255 256 258 260 259 257 256 256 256 257 257 258 258 260 260 260 261 261 260 260 260 260 261 263 262 261 261 261 261 261 262
222 229 233 238 241 242 243 244 245 247 250 252 254 257 259 257 256 257 258 259 258 260 262 262 263 263 263 264 264 263 263 262 262 263 263 263 263 263 263 263 263 263 263
218 223 228 232 235 237 239 241 243 246 249 251 253 256 258 258 258 260 262 262 262 264 265 266 265 265 266 266 265 266 265 265 265 264 264 264 265 265 265 265 265 265 265
218 222 223 228 235 240 243 245 247 249 252 254 258 260 262 260 261 263 264 265 267 268 268 268 268 268 268 268 269 268 267 267 267 267 267 267 267 267 268 268 268 267 267
226 227 229 234 239 243 247 250 252 254 257 259 261 264 266 266 266 267 267 268 269 270 270 269 269 270 271 270 270 270 270 271 271 271 270 270 270 270 270 269 269 269 269
234 236 238 242 246 249 253 256 258 260 263 264 265 267 269 270 270 271 271 271 272 272 272 272 272 273 274 274 274 274 273 273 272 273 272 272 272 271 271 271 271 270 270
247 247 249 252 255 257 259 262 264 266 267 268 269 271 272 272 273 273 273 273 274 274 274 273 274 275 274 275 275 275 275 275 275 274 274 273 273 273 272 272 272 272 272
255 256 258 260 262 264 266 268 269 270 272 273 274 275 276 276 276 276 275 275 275 275 276 276 276 276 276 276 276 276 275 275 275 275 274 274 274 274 273 273 273 273 274
261 262 263 265 266 267 268 270 272 273 274 275 276 277 277 277 277 278 277 277 277 277 277 277 277 278 277 277 276 276 276 276 276 276 275 275 274 274 274 274 275 275 275